Regional Weather Roundup
Issued by NWS Binghamton, NY

Home | Current Version | Previous Version | Text Only | Print | Product List | Glossary On
Versions: 1 2 3 4 5 6 7 8 9 10 11 12 13 14 15 16 17 18 19 20 21 22 23 24 25 26 27 28 29 30 31 32 33 34 35 36 37 38 39 40 41 42 43 44 45 46 47 48 49 50
000
ASUS41 KBGM 211710
RWRBGM

REGIONAL WEATHER ROUNDUP
NATIONAL WEATHER SERVICE BINGHAMTON NY
1200 PM EST TUE NOV 21 2017

Note: "fair" indicates few or no clouds below 12,000 feet with no
significant weather and/or obstructions to visibility.

* = Station(s) that does not report precipitation, such as rain,
snow, etc, also no thunder or fog.

NYZ009-015>018-022>025-036-037-044>046-055>057-062-211800
...Central New York...

CITY           SKY/WX    TMP DP  RH WIND       PRES   REMARKS
Binghamton     SUNNY     50  20  30 SW21G31   29.88F
Cortland       FAIR      50  25  37 S16G26    29.83F
Dansville      SUNNY     56  17  21 SW13G24   29.77F
Elmira         CLOUDY    53  22  29 SW20G25   29.85F
Seneca Falls   SUNNY     52  19  28 S16G24    29.79F
Ithaca         CLOUDY    53  20  27 S21G26    29.82F
Hamilton       SUNNY     48  21  34 S12G18    29.84F
Hornell        SUNNY     52  19  28 S15G21    29.83F
Monticello     SUNNY     49  24  37 VRB7      29.99F
Penn Yan       CLOUDY    53  17  24 S21G35    29.78F
Rome           CLOUDY    50  26  39 S5        29.84F
Sidney         SUNNY     54  21  28 SW12G20   29.90F
Syracuse       CLOUDY    48  22  35 S12       29.78F
$$

PAZ038>040-043-044-047-048-072-211800
...Northeast Pennsylvania...

CITY           SKY/WX    TMP DP  RH WIND       PRES   REMARKS
Hazleton       SUNNY     54  21  28 S7        30.02F
Scranton       SUNNY     55  20  25 SW17G26   29.98F
$$
&&
KEY
WCI = Wind Chill Index
VSB = Visibility
HX  = Heat Index
$$



USA.gov is the U.S. government's official web portal to all federal, state and local government web resources and services.